Dewpoint
68 69 69 68 68 69 69 68 67 62 61 63 64 64 63 65 64 63 63 65 64 62 62 62 66 65 63 62 63 62 63 61 61 60 60 60 60 61 61 61 61 62 61 60 61 61 61 61 61 61 61 62 61 61 61 61 60 60 60 60 60 59 59 60 59 60 60 59 59 60 60 61 61 62 62 62 62 62 62 62 62 62 63 63 63
69 69 69 67 68 69 69 69 69 66 65 65 65 65 65 66 66 67 61 62 59 63 65 63 63 64 63 62 62 62 64 60 60 59 60 61 61 62 62 61 63 62 61 61 61 61 62 62 62 62 62 61 61 61 61 60 61 60 60 60 60 60 60 60 60 59 60 60 60 59 60 60 61 61 61 61 62 62 62 62 62 62 63 63 63
69 69 69 68 68 69 69 69 69 68 67 65 66 66 66 66 70 67 66 64 63 64 60 62 64 63 63 62 61 61 61 64 61 59 60 61 61 61 61 62 62 62 62 64 63 63 62 62 62 62 62 62 62 62 61 61 61 61 61 61 60 61 61 60 60 60 60 60 60 60 60 60 61 61 61 61 62 62 61 62 61 62 63 63 63
69 69 69 69 68 69 68 68 68 68 68 67 65 66 66 67 69 70 69 68 65 62 63 63 62 60 62 60 60 62 61 61 61 59 60 60 60 60 61 61 62 62 62 64 64 63 63 62 62 62 62 62 62 61 62 62 62 62 61 61 61 60 60 60 60 61 61 60 59 59 60 61 61 61 60 60 61 61 61 61 62 62 63 63 62
70 69 68 69 69 69 68 67 68 67 67 67 65 66 68 69 69 69 69 67 67 64 62 62 61 63 61 61 64 63 61 60 61 59 58 58 58 59 59 61 62 65 65 63 65 63 63 63 62 64 63 63 62 63 63 62 62 62 61 61 61 61 61 61 62 62 61 61 60 60 61 61 61 61 61 61 61 61 61 62 62 62 63 63 63
69 69 69 69 69 69 68 68 68 67 67 66 67 67 67 66 66 69 68 67 64 64 63 64 64 64 65 65 64 64 64 61 60 61 59 56 57 57 59 60 62 63 64 65 66 65 64 63 64 64 65 64 63 64 63 62 62 62 62 62 62 61 62 62 62 62 62 62 61 61 61 61 61 62 61 61 62 61 61 61 62 62 62 63 63
69 70 69 69 69 68 68 69 69 67 67 66 66 66 66 65 67 66 68 67 63 63 62 63 63 64 65 65 64 64 64 63 62 61 60 60 58 58 60 62 63 62 63 64 66 66 65 64 64 64 65 65 64 63 63 62 62 63 62 62 62 62 62 62 63 63 62 62 61 61 61 62 62 62 62 61 61 62 62 62 62 62 63 62 63
68 69 70 69 69 68 68 69 68 66 67 67 66 65 64 65 65 66 66 64 64 62 62 62 63 63 65 66 66 65 64 63 62 60 60 63 65 66 66 62 63 63 64 63 64 65 66 66 65 65 65 65 65 65 64 63 63 63 63 63 62 63 62 62 63 64 63 63 63 62 62 62 62 62 62 62 62 63 63 63 62 62 62 63 63
68 68 69 68 68 68 69 69 69 69 69 69 67 66 65 64 65 65 65 63 63 61 62 64 64 64 65 65 65 65 64 63 62 62 62 62 64 64 64 65 66 65 65 64 64 64 66 66 65 66 65 65 65 65 65 64 64 64 63 62 62 62 62 63 63 64 64 63 63 62 63 63 62 62 62 63 63 63 63 63 63 63 63 62 62
69 68 69 68 68 68 69 69 68 69 69 69 67 66 65 65 64 65 65 65 64 64 66 66 64 63 63 66 65 65 65 65 63 63 61 61 64 64 65 66 66 66 66 66 65 65 64 66 66 66 66 66 66 65 65 65 65 65 64 63 63 63 63 63 64 64 64 64 63 63 63 63 62 62 62 62 61 62 63 63 63 62 62 62 62
69 68 69 68 67 68 68 68 69 68 69 67 66 66 65 66 66 65 68 66 67 67 65 65 64 62 62 64 65 66 65 65 64 63 61 60 61 63 63 63 64 64 65 65 65 65 64 65 65 65 65 66 65 65 65 64 64 64 65 64 64 64 63 64 64 63 64 64 64 64 63 63 63 63 62 61 61 61 61 61 61 61 61 62 61
67 68 68 68 68 68 67 68 67 67 67 66 66 65 66 65 66 67 67 67 67 66 65 65 65 64 64 64 65 65 63 64 64 61 61 62 61 60 60 62 62 62 64 64 65 65 64 65 65 64 64 65 66 66 65 65 65 65 66 65 65 64 64 64 64 64 64 64 63 63 63 63 63 62 62 62 61 60 60 60 60 60 61 61 60
68 68 68 68 68 68 67 68 68 67 67 66 66 66 66 66 68 67 66 65 65 66 66 65 64 63 62 63 63 64 64 64 63 61 60 61 62 61 64 62 62 63 63 64 64 66 65 64 64 65 64 65 65 66 66 66 66 65 65 65 65 64 65 64 65 64 64 63 62 63 63 63 63 62 61 61 61 61 60 60 60 59 59 59 59
68 68 68 68 68 68 68 68 69 68 67 66 66 66 66 68 66 65 66 65 65 65 65 64 62 61 60 60 62 63 63 65 64 61 59 60 62 61 63 62 61 62 62 62 64 64 64 64 65 64 64 64 64 65 65 65 65 65 65 65 65 65 64 64 64 64 63 62 62 62 63 63 62 61 61 61 60 60 60 60 59 58 58 58 58
66 66 68 68 68 68 67 68 67 67 67 66 66 65 65 67 65 64 65 65 64 66 65 65 62 62 61 60 58 59 61 62 63 63 64 65 64 63 60 60 59 62 61 60 59 62 63 63 64 63 64 63 63 64 64 65 64 66 65 65 65 65 65 65 64 62 61 61 61 62 63 63 62 61 61 61 60 60 60 59 58 58 58 58 58
66 65 68 68 68 67 67 67 67 67 67 66 65 65 65 66 66 65 65 63 63 63 64 64 64 61 57 58 59 57 56 58 60 61 62 64 63 61 59 60 58 63 60 59 58 59 61 63 63 64 63 62 63 64 64 63 65 66 65 64 64 64 65 63 63 62 62 61 61 63 63 62 62 61 60 60 60 59 59 58 58 57 57 57 57
66 65 67 66 67 67 67 67 67 67 66 66 65 65 65 65 65 64 64 63 62 63 64 65 63 64 60 58 57 57 56 58 60 60 62 62 63 61 60 59 59 60 59 57 56 57 59 61 63 64 64 64 62 62 63 64 64 66 65 65 65 65 64 63 62 62 61 60 61 63 62 62 61 61 60 59 59 58 58 58 58 58 58 58 57
67 66 66 67 67 67 67 67 66 67 66 66 65 66 64 65 65 64 64 64 63 62 63 64 64 63 63 63 63 57 58 60 59 56 61 63 61 60 61 64 60 58 57 56 55 55 57 61 63 64 64 63 62 62 63 63 64 64 64 64 64 64 64 63 62 61 61 60 61 62 61 60 60 60 59 59 58 58 58 58 57 58 58 58 57
68 65 66 66 66 67 67 66 67 67 67 67 66 65 66 65 65 65 64 64 64 62 62 63 64 64 64 65 64 63 62 60 57 58 56 60 61 61 62 61 60 56 56 55 54 57 57 59 62 61 62 61 60 61 62 62 63 64 64 64 63 62 62 61 62 61 61 61 61 60 59 59 60 59 58 58 58 58 58 57 57 58 57 57 57
67 66 66 66 66 67 67 67 66 66 66 66 66 66 66 66 66 65 66 65 64 63 62 63 62 62 64 64 63 63 62 63 62 59 58 56 58 60 61 61 59 59 57 55 54 58 59 59 60 60 60 58 59 58 59 59 61 63 63 62 61 61 61 61 60 60 61 61 61 60 60 59 59 58 58 57 57 57 57 57 57 57 57 57 57
67 67 67 66 66 66 67 66 66 65 66 66 66 66 66 65 65 66 65 65 65 64 63 63 63 62 63 63 62 62 62 63 62 61 58 57 56 57 58 59 61 61 59 58 57 59 59 59 58 59 59 58 57 56 57 59 62 62 62 60 60 60 60 60 58 57 58 61 60 61 60 60 59 58 57 57 57 57 57 57 57 57 57 57 56
67 67 66 65 67 67 67 66 66 66 66 65 65 65 66 65 65 65 65 64 65 65 64 64 64 63 64 63 62 62 61 60 61 61 60 60 58 57 58 57 56 58 61 60 59 59 58 58 58 57 58 59 56 56 57 60 61 61 60 59 60 59 60 60 56 57 58 58 61 60 60 60 58 58 57 57 57 57 57 57 57 57 56 56 55
67 67 65 64 65 65 66 64 65 65 65 66 65 65 65 66 65 65 65 64 64 65 64 64 64 64 64 63 62 61 60 59 59 60 60 58 58 57 59 58 56 57 60 60 58 58 58 57 57 56 58 57 56 54 56 59 60 60 59 59 59 59 59 57 55 55 56 60 60 60 60 58 57 57 57 57 57 57 56 57 57 57 56 55 54
66 66 67 67 66 67 65 65 65 65 65 65 65 65 65 66 66 65 64 64 64 64 64 64 64 64 63 63 63 62 62 61 61 61 60 59 58 57 57 56 59 57 58 60 59 57 57 56 56 56 57 56 56 54 55 56 58 60 59 59 59 59 59 57 55 55 55 57 58 59 58 57 57 57 57 58 57 56 57 57 57 56 55 53 53
65 65 65 66 66 66 66 65 64 64 64 65 63 64 65 66 66 65 65 65 65 64 63 64 64 64 63 63 63 62 62 63 63 61 61 62 60 58 57 57 56 57 57 58 59 57 57 57 55 54 56 56 56 54 55 57 58 59 59 58 58 57 57 58 57 55 54 54 56 58 58 58 58 57 57 57 56 57 57 56 56 55 55 54 55
64 65 65 65 66 66 66 65 65 65 65 64 64 65 65 65 66 65 64 65 65 64 64 64 64 64 64 63 63 63 63 63 63 62 61 61 60 59 58 59 59 57 55 56 58 57 57 58 56 55 55 56 55 54 58 57 57 58 58 58 57 56 56 57 59 57 56 55 55 57 57 58 57 57 57 56 56 57 57 54 54 55 53 53 55
63 63 64 65 66 67 65 65 65 64 64 64 64 64 64 65 65 65 64 64 64 64 63 63 63 64 64 64 63 63 64 64 63 62 62 61 60 60 59 57 57 57 59 56 57 56 56 56 57 55 55 56 55 55 57 56 57 57 58 58 57 55 55 56 58 58 56 55 55 55 55 55 56 56 56 56 56 54 54 56 55 54 54 54 56
64 63 64 64 65 66 66 65 65 64 64 64 64 64 64 63 64 64 63 65 64 63 63 63 62 63 64 64 64 63 64 64 63 63 64 63 62 62 60 59 55 55 57 57 59 57 56 59 57 56 55 56 54 55 56 56 56 57 58 58 57 56 54 55 57 58 57 56 54 54 53 53 53 54 54 55 56 55 56 56 55 55 54 55 58
63 63 63 64 64 64 65 66 64 64 64 64 64 63 63 64 64 64 64 64 64 64 64 63 63 64 64 64 63 64 63 63 63 64 64 63 63 63 62 60 58 57 54 55 56 56 55 58 55 55 55 55 55 54 55 55 56 57 57 57 58 57 55 54 55 56 55 55 55 55 54 53 54 54 56 57 57 57 56 55 55 54 54 55 57
62 64 63 63 64 64 64 65 65 64 63 64 64 63 64 63 63 64 64 63 63 64 64 64 64 64 63 63 63 63 64 63 63 63 62 63 62 62 62 62 62 59 56 53 54 56 55 57 56 54 54 54 54 53 53 54 56 55 54 56 58 57 54 54 54 53 53 54 53 53 52 53 55 56 58 57 57 56 54 54 53 53 53 56 57
59 60 61 62 63 63 63 64 64 64 64 64 64 64 64 63 63 64 63 64 64 64 63 63 63 63 63 63 63 64 64 64 63 63 63 62 62 63 63 63 61 59 57 57 54 59 62 58 55 54 54 54 52 51 50 52 55 53 52 56 56 56 55 54 53 53 53 53 51 53 53 53 54 55 56 57 57 56 54 55 54 53 55 56 56
58 58 59 59 61 62 62 63 63 63 62 63 63 63 63 63 64 62 63 64 64 63 63 63 63 63 63 62 62 63 64 64 64 64 64 63 62 62 62 62 62 61 61 59 56 55 57 56 55 53 53 54 52 50 49 50 53 53 49 55 55 56 55 55 53 53 53 52 52 53 56 54 53 55 56 56 56 56 55 56 55 55 55 54 53
56 56 57 57 58 60 60 61 61 62 63 63 63 62 62 62 63 63 63 62 62 62 62 62 63 62 62 63 62 62 63 63 63 64 64 63 63 62 63 63 61 60 61 59 58 57 60 62 58 54 53 54 52 50 47 46 48 47 47 50 56 56 55 56 55 52 52 52 51 51 52 51 51 55 56 56 56 55 55 54 54 53 52 51 51
54 54 55 56 57 58 59 61 62 61 62 62 63 62 62 62 62 62 62 62 61 62 62 62 62 62 62 61 62 62 63 62 62 63 64 63 63 63 62 62 61 60 62 61 60 58 57 59 57 59 53 53 52 50 47 46 44 43 39 47 56 54 53 55 55 54 51 51 51 50 51 51 50 52 53 52 52 53 52 52 51 50 51 50 47
52 52 54 55 56 57 58 59 62 60 62 62 63 63 62 62 61 61 62 62 61 61 62 62 63 62 62 61 61 61 62 61 62 62 63 63 63 63 62 62 62 61 62 62 60 57 57 58 58 55 54 53 53 52 49 47 44 40 37 52 55 52 49 50 54 55 51 50 50 50 50 50 49 49 50 51 51 51 51 51 50 49 49 49 47
50 51 52 52 53 54 56 58 60 61 61 61 62 62 61 61 62 62 62 63 62 62 62 62 62 62 61 61 61 62 62 61 61 62 62 63 64 63 62 62 62 62 61 60 59 57 56 56 56 53 55 54 53 52 50 47 43 40 37 49 54 53 51 50 49 51 52 50 50 50 50 50 49 48 48 49 49 50 49 49 49 48 47 48 47
48 49 49 50 51 52 54 56 59 60 62 61 61 61 62 62 62 62 61 61 62 61 61 61 61 62 62 61 62 62 62 61 61 61 62 62 62 63 62 62 62 62 61 61 61 62 60 57 55 55 56 55 54 54 55 46 45 43 39 37 50 47 48 50 49 46 52 50 50 50 50 50 49 48 48 48 48 48 48 48 48 48 47 47 46
47 48 47 47 49 50 52 54 56 59 60 60 57 55 57 61 62 62 61 61 62 61 61 61 61 61 62 61 61 61 62 60 60 61 62 61 62 62 62 62 61 62 61 62 62 61 61 59 56 54 55 55 53 54 57 49 48 45 41 34 41 47 45 45 44 47 51 52 52 51 50 50 49 49 49 48 47 47 46 47 47 47 47 46 46
46 46 46 46 47 48 49 51 55 51 47 46 46 46 47 51 57 61 61 61 61 62 62 62 61 61 61 61 61 62 62 61 61 61 61 61 61 61 61 61 61 61 61 61 61 61 59 59 57 55 53 54 55 56 53 50 50 48 44 38 36 37 44 43 43 44 48 49 50 49 50 50 50 51 49 48 47 47 47 47 47 47 47 46 46
45 45 45 45 45 46 46 47 52 50 46 44 43 42 43 45 49 54 61 61 62 61 61 61 61 61 61 61 60 61 62 61 60 61 61 61 61 61 62 62 62 61 60 60 60 60 59 59 58 57 58 54 55 54 54 52 47 47 44 39 38 37 42 46 42 47 47 46 47 48 48 48 48 49 48 48 48 47 47 47 48 47 47 46 45
46 44 44 44 44 44 44 45 47 49 45 44 43 41 41 42 44 49 53 59 61 60 60 60 61 61 61 60 61 62 62 61 58 58 59 59 61 61 61 62 62 61 60 60 59 59 58 58 58 57 56 54 53 53 51 48 44 45 46 41 41 41 41 45 42 46 45 44 44 43 44 47 46 48 49 49 49 48 48 48 48 48 47 46 45
43 44 43 44 43 43 44 44 45 48 44 42 43 41 41 41 42 44 48 54 59 61 61 61 61 61 62 61 61 60 59 58 56 54 53 54 56 61 62 61 62 61 59 59 59 59 58 57 58 57 56 55 54 50 48 46 46 46 46 44 42 42 44 43 43 45 45 43 43 41 39 44 43 44 46 46 46 49 49 48 48 48 47 45 45
44 43 43 43 43 43 43 43 44 46 44 42 40 38 38 39 41 41 44 50 55 59 61 60 60 60 61 62 62 61 59 57 57 51 50 50 50 51 54 56 59 61 60 59 58 60 59 58 58 57 57 56 56 52 44 44 50 46 46 45 44 44 43 44 41 46 45 44 43 42 41 42 42 39 41 42 43 45 47 47 46 47 46 45 45
44 43 43 43 43 43 43 42 43 45 44 42 39 39 38 38 39 41 42 47 53 57 59 60 61 60 60 61 62 62 61 60 61 58 53 49 48 48 49 51 51 52 54 58 59 59 59 58 58 57 57 56 55 56 47 47 51 48 48 46 44 43 41 43 43 43 45 45 45 45 45 45 42 39 40 40 40 42 43 44 44 45 45 44 44
44 44 43 43 43 43 43 42 43 43 43 40 39 39 38 38 38 39 42 46 52 55 57 59 60 61 61 61 61 61 63 59 61 61 60 58 50 47 49 49 49 48 48 49 53 59 60 59 58 58 57 57 56 56 60 58 60 49 49 48 47 46 46 43 44 46 47 46 46 45 46 46 44 41 41 52 47 48 46 43 43 43 43 44 44
43 43 43 44 43 43 43 42 43 43 43 41 39 39 39 38 38 38 42 47 52 55 57 58 59 60 60 59 59 60 61 61 61 62 61 61 58 54 54 55 56 52 46 47 47 51 56 59 59 59 59 58 57 56 59 60 57 56 52 48 51 49 48 48 50 56 54 47 44 46 45 46 45 44 48 51 50 48 46 44 43 43 43 43 43
42 42 42 42 43 43 43 43 42 43 43 40 39 38 38 38 38 39 44 49 53 55 57 58 59 60 60 60 60 60 61 61 61 60 61 61 61 58 57 58 59 57 56 55 56 58 60 61 60 60 60 61 60 59 60 61 61 61 60 57 58 59 59 59 55 55 51 47 48 49 43 45 45 47 51 50 49 47 46 44 44 44 44 44 44
41 41 41 42 41 41 42 43 42 42 42 39 38 38 38 38 38 41 42 47 52 54 56 58 59 60 61 61 60 60 60 60 57 51 53 60 61 60 59 59 59 59 54 47 43 52 58 60 61 61 61 60 56 60 61 60 60 60 60 60 58 59 56 54 52 53 53 53 55 53 49 45 47 51 51 50 49 48 48 47 44 45 44 44 44
40 40 40 41 40 40 40 41 41 41 40 40 38 38 38 38 39 40 43 47 50 52 53 54 57 60 60 60 60 59 60 60 53 48 48 50 59 59 59 59 59 57 50 48 41 40 42 48 52 51 48 51 51 51 50 52 57 58 58 57 56 57 53 51 50 52 54 54 51 52 54 52 53 52 51 51 49 47 47 47 45 43 43 43 43
39 39 40 39 39 40 40 40 40 40 40 40 38 38 38 38 39 40 42 43 45 47 50 52 54 58 60 59 57 59 60 59 51 46 46 50 58 59 59 59 58 53 51 51 50 46 40 41 42 42 41 42 42 44 46 48 50 53 57 56 56 56 54 53 52 52 54 52 50 51 53 53 54 54 52 51 49 49 48 48 47 45 42 42 42
38 39 39 38 39 39 39 40 41 40 40 40 38 38 38 38 39 40 41 41 42 44 49 47 48 49 50 49 46 42 42 43 40 43 43 49 57 59 60 59 57 52 52 52 51 51 51 50 50 51 51 51 53 53 50 47 49 54 58 57 56 55 54 54 54 53 52 51 51 50 53 51 50 50 51 49 49 51 49 48 45 43 43 42 42